Regional Weather Roundup
Issued by NWS

Home | Current Version | Previous Version | Graphics & Text | Print | Product List | Glossary On
Versions: 1 2 3 4 5 6 7 8 9 10 11 12 13 14 15 16 17 18 19 20 21 22 23 24 25 26 27 28 29 30 31 32 33 34 35 36 37 38 39 40 41 42 43 44 45 46 47 48 49 50
083
ASUS43 KLOT 022208
RWRIL

ILLINOIS REGIONAL WEATHER ROUNDUP
NATIONAL WEATHER SERVICE CHICAGO/ROMEOVILLE IL
500 PM CDT MON MAY 02 2016

NOTE: "FAIR" INDICATES FEW OR NO CLOUDS BELOW 12,000 FEET WITH NO
SIGNIFICANT WEATHER AND/OR OBSTRUCTIONS TO VISIBILITY.

* THESE STATIONS ARE NOT UNDER NWS QUALITY CONTROL. THEY ALSO MAY NOT
  REPORT WEATHER SUCH AS PRECIPITATION OR FOG.

ILZ001-002-007-009-015-016-024-022300-
NORTHWEST ILLINOIS

CITY           SKY/WX    TMP DP  RH WIND       PRES   REMARKS
MOLINE         CLOUDY    60  40  47 NE7       30.02F
STERLING*      CLOUDY    61  39  44 NE5       30.03S
SAVANNA*       CLOUDY    60  39  46 NE5       30.02F
$$

ILZ003-004-008-010-011-017-018-022300-
NORTH CENTRAL ILLINOIS

CITY           SKY/WX    TMP DP  RH WIND       PRES   REMARKS
ROCKFORD       PTSUNNY   60  37  42 N5        30.03F
FREEPORT*      CLOUDY    57  39  50 NE5       30.04S
ROCHELLE*      CLOUDY    58  38  46 NE12      30.02S
DE KALB*       MOSUNNY   60  37  42 NE14      30.01F
$$

ILZ005-006-012>014-019>023-022300-
NORTHEAST ILLINOIS

CITY           SKY/WX    TMP DP  RH WIND       PRES   REMARKS
CHICAGO-OHARE  PTSUNNY   57  33  40 N14       30.01F
CHICAGO-MIDWAY PTSUNNY   56  37  49 NE15G23   30.02F
AURORA         SUNNY     60  35  39 NE17      30.01F
LANSING*       CLOUDY    55  40  56 NE10      30.02S
JOLIET*        SUNNY     59  37  44 NE14      30.01S
WAUKEGAN       SUNNY     55  34  45 N12       30.02F
DUPAGE AIRPORT SUNNY     59  33  37 NE14      30.00F
KANKAKEE*      MOSUNNY   58  40  51 N9        30.00F
WHEELING       CLOUDY    55  32  41 NE10      30.04F
MORRIS*        SUNNY     59  35  40 NE5       30.00S
ROMEOVILLE*    SUNNY     57  33  41 NE15      30.01S
NORTHERLY ISL    N/A     49  39  68 MISG        N/A
NORTHERLY ISL    N/A     49  39  68 MISG        N/A
$$

LMZ740>746-022300-
SOUTHERN LAKE MICHIGAN

STATION/POSITION SKY/WX   TEMP    WIND        PRES    VSBY  WAVE
                          AIR SEA DIR/SP/G                  HT/PER
                          (F)     (DEG/KT/KT) (MB)    (MI)  (FT/S)
SOUTHERN BUOY              42 41  340/  4/  6 1017.0F         1/ 4
HARRISON CRIB              46     360/ 10/ 11   N/A
BURNHAM HARBOR             49      10/  7/ 11   N/A
CALUMET HARBOR             48     340/ 11/ 13 1016.6F
BURNS HARBOR               46      50/ 10/ 13 1017.3F
MICHIGAN CITY              44      10/  8/  9   N/A
ST. JOSEPH                 46 48                N/A           2/ 4
$$

ILZ025>027-034>036-040-047-049-050-058-095>099-022300-
WEST-CENTRAL ILLINOIS

CITY           SKY/WX    TMP DP  RH WIND       PRES   REMARKS
QUINCY         CLOUDY    53  48  83 N10       30.04S
GALESBURG*     CLOUDY    56  44  63 E5        30.02F
MACOMB*        CLOUDY    55  46  71 N3        30.05F
JACKSONVILLE*  CLOUDY    55  47  75 NW6       30.03S
PITTSFIELD*    CLOUDY    54  49  82 N5        30.05S
$$

ILZ028>032-037-038-041>044-048-051>054-059>061-022300-
CENTRAL ILLINOIS

CITY           SKY/WX    TMP DP  RH WIND       PRES   REMARKS
PONTIAC        MOSUNNY   61  41  48 NE8       30.00S
BLOOMINGTON    CLOUDY    57  44  62 NE7       30.01S
DECATUR        CLOUDY    55  46  71 N9        30.01S
PEORIA         CLOUDY    58  42  55 CALM      30.02S
LACON*         CLOUDY    58  38  47 NE6       30.01R
LINCOLN*       CLOUDY    56  47  72 CALM      30.01F
SPRINGFIELD    CLOUDY    57  48  72 N6        30.02F
TAYLORVILLE    CLOUDY    54  48  82 NW6       30.02S
$$

ILZ033-039-045-046-055>057-062-063-022300-
EAST-CENTRAL ILLINOIS

CITY           SKY/WX    TMP DP  RH WIND       PRES   REMARKS
CHAMPAIGN      CLOUDY    56  47  71 N9        29.99S
RANTOUL*       CLOUDY    58  48  68 N6        29.99S
MATTOON        CLOUDY    57  47  69 NW8       29.98S
PARIS*         CLOUDY    55  50  83 CALM      29.99S
$$

ILZ079-100>102-022300-
SOUTHWEST ILLINOIS

CITY           SKY/WX    TMP DP  RH WIND       PRES   REMARKS
ALTON          CLOUDY    55  48  76 NW8       30.03S
BELLEVILLE     MOSUNNY   56  50  80 NW5       30.01F
CAHOKIA*       CLOUDY    57  48  72 NW7       30.03S
SPARTA*        PTSUNNY   58  49  72 NW6       30.02S
$$

ILZ064>066-069>071-074>076-080>082-084>086-088>090-092>094-022300-
SOUTH-CENTRAL ILLINOIS

CITY           SKY/WX    TMP DP  RH WIND       PRES   REMARKS
CARBONDALE     CLOUDY    58  49  72 N10       30.00F
CAIRO*         CLOUDY    63  51  64 NW10      29.97F
EFFINGHAM*     CLOUDY    55  51  86 NW7       30.01S
MARION         CLOUDY    59  50  72 N12       30.00F
MT. VERNON     CLOUDY    57  46  67 W5        30.01F
CENTRALIA*     CLOUDY    58  51  76 NW9       29.99F
SALEM*         PTSUNNY   60  50  71 NW9       30.00S
METROPOLIS*    CLOUDY    64  54  70 N10G17    29.97F
$$

ILZ067-068-072-073-078-083-087-091-022300-
SOUTHEAST ILLINOIS

CITY           SKY/WX    TMP DP  RH WIND       PRES   REMARKS
LAWRENCEVILLE  CLOUDY    58  50  75 NW9       29.98S
FLORA*         CLOUDY    58  50  74 N9        30.00S
FAIRFIELD*     CLOUDY    57  49  74 NW3       29.98F
HARRISBURG*    CLOUDY    59  50  72 NW13      29.99S
ROBINSON*      CLOUDY    54  50  87 N7        30.00S
CARMI*         CLOUDY    58  52  79 NW13      29.97F
$$

ABBREVIATIONS USED IN REMARKS
   TC - TEMPERATURE IN CELSIUS
  WCI - WIND CHILL INDEX
   HX - HEAT INDEX
  VSB - VISIBILITY
$$





USA.gov is the U.S. government's official web portal to all federal, state and local government web resources and services.